Location: Saratoga Springs
(43.0831°N, 73.7850°W)
Time: 13:12:29
(UTC-04:00)

Vanguard 1 Rocket - All Passes

Search period start: 13 April 2024 00:00
Search period end: 23 April 2024 00:00
Orbit: 652 x 4220 km, 34.3° (Epoch: 12 April)

Date Brightness Start Highest point End Pass type
(mag) Time Alt. Az. Time Alt. Az. Time Alt. Az.
13 Apr - 00:09:25 10° W 00:19:35 56° S 00:39:02 10° ESE visible
13 Apr - 02:34:47 10° W 02:48:10 40° SSW 03:09:16 10° SSE visible
13 Apr - 05:05:55 10° WSW 05:17:12 17° SW 05:30:35 10° S visible
13 Apr - 20:35:40 10° SW 20:41:23 34° SSE 20:51:06 10° E visible
13 Apr - 22:58:18 10° WSW 23:06:41 56° S 23:23:06 10° ESE visible
14 Apr - 01:22:41 10° W 01:34:19 47° SSW 01:54:46 10° SE visible
14 Apr - 03:50:14 10° W 04:03:13 26° SW 04:20:52 10° S visible
14 Apr - 19:26:09 10° S 19:30:17 20° SE 19:36:03 10° E daylight
14 Apr - 21:47:31 10° WSW 21:54:24 50° SSE 22:07:26 10° E visible
15 Apr - 00:11:09 10° W 00:20:56 52° S 00:39:26 10° ESE visible
15 Apr - 02:36:49 10° W 02:49:16 33° SSW 03:08:28 10° SSE visible
15 Apr - 05:11:55 10° WSW 05:18:06 12° SW 05:24:54 10° SSW visible
15 Apr - 20:37:05 10° SW 20:42:41 38° SSE 20:52:20 10° E visible
15 Apr - 23:00:01 10° WSW 23:08:06 53° S 23:23:49 10° ESE visible
16 Apr - 01:24:33 10° W 01:35:33 40° SSW 01:54:32 10° SE visible
16 Apr - 03:53:17 10° WSW 04:04:14 20° SW 04:18:27 10° S visible
16 Apr - 19:27:10 10° SSW 19:31:28 24° SSE 19:37:44 10° E daylight
16 Apr - 21:49:10 10° WSW 21:55:50 50° S 22:08:24 10° ESE visible
17 Apr - 00:12:56 10° W 00:22:18 46° SSW 00:39:41 10° SE visible
17 Apr - 02:39:08 10° W 02:50:25 27° SSW 03:07:12 10° SSE visible
17 Apr - 18:18:49 10° SSE 18:20:34 12° SE 18:22:30 10° ESE daylight
17 Apr - 20:38:36 10° SW 20:44:05 41° SSE 20:53:32 10° E visible
17 Apr - 23:01:45 10° WSW 23:09:32 49° S 23:24:26 10° ESE visible
18 Apr - 01:26:34 10° W 01:36:51 34° SSW 01:53:59 10° SSE visible
18 Apr - 03:57:45 10° WSW 04:05:20 14° SW 04:14:25 10° SSW visible
18 Apr - 19:28:23 10° SSW 19:32:47 28° SSE 19:39:15 10° E daylight
18 Apr - 21:50:52 10° WSW 21:57:19 48° S 22:09:19 10° ESE visible
19 Apr - 00:14:49 10° W 00:23:42 40° SSW 00:39:42 10° SE visible
19 Apr - 02:41:57 10° WSW 02:51:38 21° SSW 03:05:13 10° S visible
19 Apr - 18:19:00 10° S 18:21:46 15° SE 18:25:05 10° ESE daylight
19 Apr - 20:40:12 10° WSW 20:45:33 42° SSE 20:54:42 10° ESE visible
19 Apr - 23:03:33 10° WSW 23:11:01 44° S 23:24:55 10° SE visible
20 Apr - 01:28:49 10° WSW 01:38:12 27° SSW 01:53:01 10° SSE visible
20 Apr - 19:29:47 10° SW 19:34:11 31° SSE 19:40:42 10° E daylight
20 Apr - 21:52:36 10° WSW 21:58:50 45° S 22:10:10 10° ESE visible
21 Apr - 00:16:48 10° W 00:25:08 33° SSW 00:39:26 10° SE visible
21 Apr - 02:45:47 10° WSW 02:52:56 15° SW 03:02:02 10° S visible
21 Apr - 18:19:49 10° SSW 18:23:05 19° SSE 18:27:05 10° ESE daylight
21 Apr - 20:41:52 10° WSW 20:47:03 42° S 20:55:50 10° ESE visible
21 Apr - 23:05:26 10° WSW 23:12:31 38° SSW 23:25:14 10° SE visible
22 Apr - 01:31:29 10° WSW 01:39:35 21° SSW 01:51:29 10° SSE visible
22 Apr - 19:31:17 10° SW 19:35:39 33° SSE 19:42:05 10° ESE daylight
22 Apr - 21:54:24 10° WSW 22:00:22 41° S 22:10:55 10° ESE visible
